Regional Weather Roundup
Issued by NWS Jackson, KY

Home | Current Version | Previous Version | Text Only | Print | Product List | Glossary Off
Versions: 1 2 3 4 5 6 7 8 9 10 11 12 13 14 15 16 17 18 19 20 21 22 23 24 25 26 27

000
ASUS43 KJKL 301510
RWRJKL

EAST KENTUCKY HOURLY WEATHER ROUNDUP
NATIONAL WEATHER SERVICE JACKSON KY
1100 AM EDT SAT APR 30 2016

NOTE: "FAIR" INDICATES FEW OR NO CLOUDS BELOW 12,000 FEET WITH
NO SIGNIFICANT WEATHER AND/OR OBSTRUCTIONS TO VISIBILITY.

* THESE REPORTS ARE NOT UNDER NWS QUALITY CONTROL AND MAY NOT
  REPORT WEATHER SUCH AS PRECIPITATION AND FOG.

KYZ079-080-083-085-087-088-110-112-115-119-120-301600
...EASTERN KENTUCKY...

CITY           SKY/WX    TMP DP  RH WIND       PRES   REMARKS
JACKSON        CLOUDY    61  53  75 CALM      30.00R
LONDON         LGT RAIN  63  54  72 N5        30.01R
SOMERSET*      DRIZZLE   61  54  77 CALM      30.05R
MONTICELLO*    RAIN      62  59  90 W10       30.04
WILLIAMSBURG*  CLOUDY    57  55  94 CALM      30.00R
MIDDLESBORO*   PTSUNNY   65  59  82 W3        30.01R
HARLAN APT*    CLOUDY    63  54  72 CALM      30.02R
HAZARD APT*    CLOUDY    63  57  82 CALM      30.00R
BLACK MTN*       N/A     59  48  67 SE1         N/A
PIKE CO APT*     N/A     63  57  80 N3        30.01S
BIG SANDY APT* CLOUDY    64  56  77 NE3       30.01R
MOREHEAD APT*  CLOUDY    61  54  77 VRB5      30.02S
$$

KYZ035-036-041-042-044-050-067-078-099-301600
...CENTRAL KENTUCKY...

CITY           SKY/WX    TMP DP  RH WIND       PRES   REMARKS
MT STERLING*   RAIN      59  55  88 CALM      30.06R
FLEMING/MASON* RAIN      56  51  83 E3        30.04R
DANVILLE*      RAIN      57  55  94 CALM      30.04R
RICHMOND*      CLOUDY    59  55  88 NW3       30.03R
LEXINGTON      RAIN      59  54  83 E5        30.03R
FRANKFORT      LGT RAIN  59  55  87 E3        30.02R FOG
LOUISVILLE     LGT RAIN  60  56  86 E9        29.96F FOG
LEBANON*       LGT RAIN  59  57  94 NE6       30.00F
BOWLING GREEN  LGT RAIN  63  61  93 E6        29.95R
$$

KYZ091>093-OHZ055-061-077-WVZ005-015-034-035-042-301600
...SOUTHERN OHIO/WEST VIRGINIA...

CITY           SKY/WX    TMP DP  RH WIND       PRES   REMARKS
COVINGTON      LGT RAIN  54  51  90 CALM      30.05R FOG
COLUMBUS       CLOUDY    53  46  77 NE10      30.05F
DAYTON         LGT RAIN  50  47  89 E8        30.03F
WILMINGTON     LGT RAIN  50  47  89 E10       30.03S
HUNTINGTON     CLOUDY    58  51  78 NE5       30.03S
CHARLESTON     PTSUNNY   59  51  75 NE6       30.03F
PINEVILLE*       N/A     68  51  53 MISG      30.08S
BECKLEY        PTSUNNY   61  52  72 E8        30.08S
$$

VAZ002-007-008-TNZ017-027-036-066-071-301600
...SOUTHWEST VIRGINIA/EAST TENNESSEE...

CITY           SKY/WX    TMP DP  RH WIND       PRES   REMARKS
WISE*          CLOUDY    66  41  39 S8        30.07R
BRISTOL        CLOUDY    72  54  53 CALM      30.02R
MORRISTOWN*    MOSUNNY   70  55  60 CALM      29.99S
SEVIERVILLE*   SUNNY     70  54  56 CALM      29.98S
KNOXVILLE      CLOUDY    69  56  62 N5        29.98S
OAK RIDGE      LGT RAIN  68  56  65 CALM      30.01R
CROSSVILLE     CLOUDY    69  55  60 CALM      30.00F
NASHVILLE      CLOUDY    65  62  90 E8        29.93F
$$

...KEY TO REMARKS...
VSB - VISIBILITY IN MILES
WCI - WIND CHILL INDEX
HX  - HEAT INDEX

$$




USA.gov is the U.S. government's official web portal to all federal, state and local government web resources and services.